Regional Weather Roundup
Issued by NWS Charleston, SC

Current Version | Previous Version | Text Only | Print | Product List | Glossary Off
Versions: 1 2 3 4 5 6 7 8 9 10 11 12 13 14 15 16 17 18 19 20 21 22 23 24 25 26 27 28 29 30 31 32 33 34 35 36 37 38 39 40 41 42 43 44 45 46 47 48 49 50
000 ASUS42 KCHS 291027 RWRCHS REGIONAL WEATHER ROUNDUP NATIONAL WEATHER SERVICE CHARLESTON SC 600 AM EDT SAT APR 29 2017 NOTE: "FAIR" INDICATES FEW OR NO CLOUDS BELOW 12,000 FEET WITH NO SIGNIFICANT WEATHER AND/OR OBSTRUCTIONS TO VISIBILITY. NOT ALL STATIONS ARE QUALITY CONTROLLED. USE DATA WITH CAUTION... ESPECIALLY DEWPOINT OBSERVATIONS. SCZ027-030-031-034>040-042>050-291100- ...SOUTHEAST SOUTH CAROLINA... CITY SKY/WX TMP DP RH WIND PRES REMARKS N CHARLESTON MOCLDY 74 71 91 S12 30.16R WATERFRONT PRK N/A 75 73 93 S6 30.14R JOHNS ISLAND CLOUDY 75 73 94 S6 30.17R PINOPOLIS N/A 73 72 94 CALM 30.07R MONCKS CORNER FAIR 72 70 94 CALM 30.17R SUMMERVILLE CLOUDY 73 70 88 S3 30.17R BEAUFORT MCAS MOCLDY 75 74 96 S7 30.15R BEAUFORT ARPT CLOUDY 73 72 94 S7 30.15R FOG HILTON HEAD IS NOT AVBL WALTERBORO CLOUDY 72 70 94 S6 30.17R ALLENDALE CLOUDY 72 72 100 CALM 30.13R FOG ...SOUTHERN MIDLANDS AND PEE DEE... CITY SKY/WX TMP DP RH WIND PRES REMARKS GEORGETOWN CLOUDY 72 72 100 CALM 30.19R KINGSTREE CLOUDY 72 70 94 CALM 30.19R ORANGEBURG MOCLDY 73 70 90 S5 30.16R BARNWELL CLOUDY 73 73 100 SE5 30.15R AIKEN PTSUNNY 68 68 100 SE5 30.18R MANNING PTSUNNY 72 70 94 S7 30.18R COLUMBIA PTCLDY 73 69 87 SE6 30.15R SUMTER MOCLDY 72 70 94 CALM 30.16R FLORENCE CLOUDY 73 72 96 S3 30.19R MYRTLE BEACH CLOUDY 75 72 90 S9 30.20R N MYRTLE BEACH PTCLDY 74 73 97 S8 30.20R $$ GAZ063-065-086>088-099>101-113>116-118-119-134>141-150-291100- ...SOUTHEAST GEORGIA... CITY SKY/WX TMP DP RH WIND PRES REMARKS SAVANNAH ARPT PTCLDY 75 70 84 S12 30.14R HUNTER AAF PTCLDY 75 75 100 S7 30.11S FORT STEWART CLOUDY 74 70 85 S7 30.11R STATESBORO MOCLDY 73 73 100 S5 30.13R SYLVANIA MOSUNNY N/A N/A N/A SE3 30.14R FOG CLAXTON FAIR N/A N/A N/A SE3 30.12S ...CSRA...CENTRAL AND FAR SOUTHEAST GEORGIA... CITY SKY/WX TMP DP RH WIND PRES REMARKS THOMSON CLEAR 70 67 92 S3 30.17R AUGUSTA-BUSH CLEAR 71 69 93 E6 30.11R AUGUSTA-DANIEL CLEAR 72 67 84 SE6 30.13R SWAINSBORO CLOUDY 72 72 100 S10 30.12R VIDALIA CLOUDY 73 72 94 S10 30.12R EASTMAN FAIR 72 72 99 SE3 30.12R HAZLEHURST FAIR 73 73 100 SE7 30.10R ALMA MOCLDY 73 72 96 SE8 30.10S WAYCROSS CLOUDY 75 75 100 S7 30.11S JESUP FAIR 73 70 88 S3 30.13R BAXLEY CLOUDY 73 73 100 S7G16 30.11S BRUNSWICK MOCLDY 77 73 88 S10 30.14S SAINT SIMONS CLOUDY 76 72 87 S9 30.13R $$ SCZ027-028-034-036>038-045-046-048>050-GAZ119-141-291100- ...LAKE AND SUPPLEMENTAL COASTAL OBSERVATIONS... STATION/POSITION TIME TEMP WIND PRES WAVE SWELL AIR SEA DIR/SP/G HT/PER HT/PER/DIR (UTC) (F) (DEG/KT/KT) (MB) (FT/S) (FT/S/D) WINYAH BAY 0930 74 210/ 7 1021.0S LAKE MURRAY 1020 72 120/ 4/ 7 1020.7 ACE BASIN NERRS 0945 75 190/ 1 1021.0S FORT PULASKI 1000 74 76 190/ 4/ 8 1021.1 SAPELO ISLAND 0930 75 180/ 11 1020.0S $$ ANZ835-935-AMZ111-154-330-350-352-354-370-450-454-472-291100- ...C-MAN AND BUOY OBSERVATIONS... STATION/POSITION TIME TEMP WIND PRES WAVE SWELL AIR SEA DIR/SP/G HT/PER HT/PER/DIR (UTC) (F) (DEG/KT/KT) (MB) (FT/S) (FT/S/D) BUOY 41004 1000 75 74 180/ 10/ 12 1021.5 BUOY 41008 0950 74 73 160/ 8/ 10 1020.3R 3/ 5 3/140/ 5 FOLLY BEACH CMAN 1000 74 200/ 9/ 10 1022.1R CAPERS NEARSHORE 1008 74 73 200/ 10/ 14 1021.6R FRIPP NEARSHORE 1008 74 74 190/ 10/ 12 1020.9R STATION/POSITION TIME TEMP WIND PRES WAVE SWELL AIR SEA DIR/SP/G HT/PER HT/PER/DIR (UTC) (F) (DEG/KT/KT) (MB) (FT/S) (FT/S/D) 5E ST. MARYS GA 1000 74 N/A 3/ 5 FRYING PAN BUOY 1010 75 73 190/ 8/ 10 1022.8 BUOY 41025 0950 76 76 220/ 16/ 19 1022.6R 4/ 5 2/120/ 8 CAPE LOOKOUT NC 1000 72 220/ 5/ 6 1022.4R BUOY 41002 0950 74 75 170/ 12/ 14 1023.5S 3/ 8 2/ 60/ 8 BUOY 41010 1010 77 78 130/ 14/ 17 1021.8 ST AUGUSTINE FL 1000 75 77 160/ 13/ 15 1020.8R $$

USA.gov is the U.S. government's official web portal to all federal, state and local government web resources and services.